Beverly, MA

4:57 PM EDT on May 26, 2018 (GMT -0400)
Beverly Municipal

Weather History for KBVY - April, 2013

Change the Weather History Date:

Friday, April 19, 2013

  Actual Average Record
Temperature  
Mean Temperature 62 °F -  
Max Temperature 75 °F 56 °F 87 °F (2004)
Min Temperature 50 °F 36 °F 28 °F (2003)
Degree Days  
Heating Degree Days 4    
Growing Degree Days 12 (Base 50)    
Moisture  
Dew Point 54 °F    
Average Humidity 80    
Maximum Humidity 100    
Minimum Humidity 53    
Precipitation  
Precipitation 0.00 in - - ()
Sea Level Pressure  
Sea Level Pressure 29.92 in    
Wind  
Wind Speed 9 mph (South)    
Max Wind Speed 23 mph    
Max Gust Speed 33 mph    
Visibility 8 miles    
Events      
Averages and records for this station are not official NWS values.
T = Trace of Precipitation, MM = Missing Value Source: NWS Daily Summary

Daily Weather History Graph

Daily Weather History Graph

Search for Another Location

Airport or City:

Astronomy

Apr. 19, 2013 Rise Set
Actual Time 5:55 AM EDT 7:30 PM EDT
Civil Twilight 5:26 AM EDT 8:00 PM EDT
Nautical Twilight 4:50 AM EDT 8:36 PM EDT
Astronomical Twilight 4:12 AM EDT 9:14 PM EDT
Moon 1:04 PM EDT (4/19) 2:17 AM EDT (4/19)
Length of Visible Light 14h 34m
Length of Day
13h 34m
First Quarter, 61% of the Moon is Illuminated
Apr 19
First Quarter
Apr 25
Full
May 2
Last Quarter
May 9
New
May 18
First Quarter

Hourly Weather History & Observations

Time (EDT) Temp. Dew Point Humidity Pressure Visibility Wind Dir Wind Speed Gust Speed Precip Events Conditions
12:53 AM 52.0 °F 43.0 °F 71% 30.13 in 10.0 mi South 4.6 mph - N/A   Overcast
1:44 AM 51.8 °F 44.6 °F 76% 30.11 in 10.0 mi South 6.9 mph - N/A   Overcast
1:53 AM 52.0 °F 44.1 °F 74% 30.09 in 10.0 mi SSE 5.8 mph - N/A   Overcast
2:51 AM 50.0 °F 44.6 °F 82% 30.07 in 10.0 mi SSE 6.9 mph - N/A   Overcast
2:53 AM 50.0 °F 44.1 °F 80% 30.06 in 10.0 mi SSE 5.8 mph - N/A   Overcast
3:53 AM 51.1 °F 46.9 °F 86% 30.03 in 10.0 mi SSE 3.5 mph - N/A   Overcast
4:53 AM 53.1 °F 50.0 °F 89% 30.02 in 7.0 mi South 3.5 mph - N/A   Overcast
5:24 AM 53.6 °F 51.8 °F 94% 30.01 in 2.5 mi SSE 3.5 mph - N/A   Overcast
5:35 AM 53.6 °F 51.8 °F 94% 30.01 in 2.5 mi SSE 4.6 mph - N/A   Overcast
5:51 AM 53.6 °F 51.8 °F 94% 30.01 in 3.0 mi South 6.9 mph - N/A   Overcast
5:53 AM 54.0 °F 52.0 °F 93% 29.99 in 3.0 mi South 5.8 mph - N/A   Overcast
6:09 AM 53.6 °F 51.8 °F 94% 29.99 in 2.0 mi SE 5.8 mph - N/A   Overcast
6:17 AM 51.8 °F 50.0 °F 94% 29.99 in 1.0 mi SE 6.9 mph - N/A   Overcast
6:26 AM 53.6 °F 51.8 °F 94% 29.99 in 0.8 mi SE 5.8 mph - N/A   Overcast
6:44 AM 53.6 °F 53.6 °F 100% 30.00 in 1.8 mi South 4.6 mph - N/A   Overcast
6:49 AM 55.4 °F 53.6 °F 94% 30.00 in 3.0 mi South 5.8 mph - N/A   Overcast
6:53 AM 55.9 °F 54.0 °F 93% 29.99 in 4.0 mi SSW 6.9 mph - N/A   Overcast
7:14 AM 57.2 °F 55.4 °F 94% 30.01 in 7.0 mi SSW 8.1 mph - N/A   Overcast
7:53 AM 60.1 °F 55.9 °F 86% 29.99 in 10.0 mi SSW 11.5 mph 17.3 mph N/A   Overcast
8:11 AM 60.8 °F 55.4 °F 82% 30.00 in 10.0 mi SSW 10.4 mph 19.6 mph N/A   Overcast
8:51 AM 62.6 °F 55.4 °F 77% 29.98 in 10.0 mi SSW 19.6 mph 27.6 mph N/A   Overcast
8:53 AM 63.0 °F 55.9 °F 78% 29.97 in 10.0 mi SSW 16.1 mph 27.6 mph N/A   Overcast
9:53 AM 66.9 °F 57.0 °F 70% 29.95 in 10.0 mi SSW 13.8 mph 21.9 mph N/A   Mostly Cloudy
10:53 AM 69.1 °F 55.9 °F 63% 29.93 in 10.0 mi SSW 16.1 mph 23.0 mph N/A   Mostly Cloudy
11:12 AM 71.6 °F 55.4 °F 57% 29.93 in 10.0 mi SSW 17.3 mph 27.6 mph N/A   Scattered Clouds
11:53 AM 72.0 °F 57.0 °F 59% 29.90 in 10.0 mi SSW 13.8 mph 25.3 mph N/A   Overcast
12:53 PM 73.0 °F 55.0 °F 53% 29.87 in 10.0 mi SW 19.6 mph 28.8 mph N/A   Overcast
1:53 PM 73.9 °F 55.9 °F 53% 29.84 in 10.0 mi SSW 16.1 mph 26.5 mph N/A   Mostly Cloudy
2:53 PM 73.0 °F 57.0 °F 57% 29.81 in 10.0 mi SSW 23.0 mph 33.4 mph N/A   Mostly Cloudy
3:53 PM 72.0 °F 57.0 °F 59% 29.79 in 10.0 mi South 19.6 mph 33.4 mph N/A   Overcast
4:53 PM 69.1 °F 60.1 °F 73% 29.77 in 10.0 mi South 17.3 mph 29.9 mph N/A   Overcast
5:53 PM 69.1 °F 61.0 °F 75% 29.74 in 10.0 mi SSW 20.7 mph 29.9 mph N/A   Overcast
6:53 PM 66.0 °F 60.1 °F 81% 29.72 in 10.0 mi SSW 19.6 mph 26.5 mph N/A   Overcast
7:53 PM 64.9 °F 59.0 °F 81% 29.72 in 10.0 mi South 20.7 mph 28.8 mph N/A   Overcast
8:53 PM 64.9 °F 59.0 °F 81% 29.72 in 10.0 mi SSW 15.0 mph 26.5 mph N/A   Overcast
9:53 PM 64.0 °F 60.1 °F 87% 29.69 in 10.0 mi South 16.1 mph 26.5 mph N/A   Overcast
10:53 PM 64.9 °F 60.1 °F 84% 29.67 in 10.0 mi South 13.8 mph 20.7 mph N/A   Overcast
11:53 PM 66.0 °F 61.0 °F 84% 29.65 in 10.0 mi South 13.8 mph 21.9 mph N/A   Overcast